Home   Weather   Sopron   Past weeks

Flag for Hungary Past Weather in Sopron, Hungary — Yesterday and Last 2 Weeks

Now
36 °F

Clear.


Feels Like: 30 °F
Forecast: 25 / 36 °F
Wind: 7 mph from Northwest

Location: Eisenstadt

Current Time: Dec 3, 2016 at 1:39:16 am

Latest Report: Dec 3, 2016 at 1:00 am


Visibility: 13 mi

Pressure: 30.20 "Hg

Humidity: 68%

Dew Point: 26 °F

Location of SopronLocation

Past Weather in Sopron — Graph

°F

Sopron Temperature Yesterday

Maximum temperature yesterday: 47 °F (at 9:00 am)
Minimum temperature yesterday: 30 °F (at 11:00 pm)
Average temperature yesterday: 42 °F

High & Low Weather Summary for the Past Weeks

 TemperatureHumidityPressure
High63 °F (Nov 22, 2:00 pm)100% (Nov 18, 7:00 am)30.55 "Hg (Nov 18, 7:00 am)
Low25 °F (Nov 30, 7:00 am)32% (Nov 30, 10:00 pm)29.78 "Hg (Dec 2, 8:00 am)
Average44 °F76%30.09 "Hg
* Reported Nov 18 12:00 am — Dec 3 12:00 am, Sopron, Weather by CustomWeather, © 2016

Note: Actual official high and low records may vary slightly from our data, if they occured in-between our weather recording intervals... More about our weather records

Advertising

Sopron Weather History for the Previous 24 Hours

Scroll right to see more
 ConditionsComfort  
Time TempWeatherWind HumidityBarometerVisibility
12:00 am
Sat, Dec 3
33 °FChilly.6 mph77%30.20 "HgN/A
11:00 pm
Fri, Dec 2
30 °FChilly.1 mph85%30.20 "HgN/A
10:00 pm33 °FClear.2 mph81%30.18 "Hg12 mi
9:00 pm34 °FChilly.3 mph80%30.17 "HgN/A
8:00 pm37 °FChilly.2 mph73%30.14 "HgN/A
7:00 pm37 °FClear.5 mph72%30.13 "Hg12 mi
6:00 pm37 °FChilly.1 mph73%30.11 "HgN/A
4:00 pm40 °FSunny.5 mph68%30.04 "Hg16 mi
3:00 pm41 °FQuite cool.5 mph68%30.02 "HgN/A
2:00 pm42 °FQuite cool.5 mph68%29.99 "HgN/A
1:00 pm42 °FOvercast.7 mph72%29.97 "Hg16 mi
12:00 pm41 °FQuite cool.6 mph78%29.95 "HgN/A
11:00 am39 °FChilly.8 mph86%29.93 "HgN/A
10:00 am46 °FPassing clouds.14 mph61%29.84 "Hg16 mi
9:00 am47 °FCool.14 mph59%29.81 "HgN/A
8:00 am46 °FCool.14 mph59%29.78 "HgN/A
7:00 am46 °FPassing clouds.14 mph59%29.79 "Hg12 mi
6:00 am46 °FPassing clouds.10 mph57%29.81 "Hg12 mi
5:00 am46 °FCool.10 mph56%29.81 "HgN/A
4:00 am46 °FCool.12 mph57%29.85 "HgN/A
3:00 am46 °FCool.13 mph54%29.85 "HgN/A
2:00 am46 °FCool.10 mph53%29.86 "HgN/A
1:00 am46 °FOvercast.9 mph54%29.89 "Hg9 mi
Weather by CustomWeather, © 2016

See weather overviewHow to use our weather pages